PROMETHEUS 2-1

Last updated on Fri Dec 05 2025 00:03:50 GMT+0000 (Coordinated Universal Time)

1 41854U 16067G 25337.81077914 .17008389 30870-5 38622-3 0 9992 2 41854 98.0134 216.0906 0003483 109.9703 250.1974 16.46534263498100
UTC large
Height (km)
Speed (km/s)
/
Latitude / Longitude
Inclination (degrees)
Orbital Period (minutes)
Azimuth
Elevation
Range (km)
Doppler Factor

Next 0 passes for location: London (51.5072 / 0.1276)

Sorry there are no passes over London.